Data No, UTC Date,UTC Time,Latitude,Longitude,Course(deg),Temp(degC),Sal(psu)
571,2021/1/8,9:30,42-36.89N,141-37.06E,209,4.586,32.9843
572,2021/1/8,9:31,42-36.67N,141-36.89E,208,4.978,33.0091
573,2021/1/8,9:32,42-36.42N,141-36.80E,184,5.206,33.024
574,2021/1/8,9:33,42-36.14N,141-36.81E,179,5.365,33.0156
575,2021/1/8,9:34,42-35.87N,141-36.80E,181,5.422,33.1354
576,2021/1/8,9:35,42-35.59N,141-36.80E,180,5.532,33.2462
577,2021/1/8,9:36,42-35.31N,141-36.80E,179,5.729,33.3213
578,2021/1/8,9:37,42-35.03N,141-36.80E,179,5.887,33.3532
579,2021/1/8,9:38,42-34.75N,141-36.80E,179,6.029,33.3742
580,2021/1/8,9:39,42-34.47N,141-36.80E,179,6.318,33.3785
581,2021/1/8,9:40,42-34.19N,141-36.81E,179,6.504,33.3845
582,2021/1/8,9:41,42-33.91N,141-36.81E,179,6.605,33.3896
583,2021/1/8,9:42,42-33.63N,141-36.82E,179,6.647,33.3989
584,2021/1/8,9:43,42-33.35N,141-36.82E,180,6.701,33.4055
585,2021/1/8,9:44,42-33.06N,141-36.82E,180,6.749,33.4148
586,2021/1/8,9:45,42-32.78N,141-36.82E,179,6.754,33.4101
587,2021/1/8,9:46,42-32.50N,141-36.83E,179,6.745,33.414
588,2021/1/8,9:47,42-32.22N,141-36.83E,179,6.747,33.4106
589,2021/1/8,9:48,42-31.94N,141-36.83E,180,6.762,33.4213
590,2021/1/8,9:49,42-31.66N,141-36.83E,179,6.75,33.4255
591,2021/1/8,9:50,42-31.37N,141-36.83E,180,6.739,33.42
592,2021/1/8,9:51,42-31.09N,141-36.83E,179,6.721,33.4303
593,2021/1/8,9:52,42-30.81N,141-36.84E,179,6.703,33.4293
594,2021/1/8,9:53,42-30.52N,141-36.84E,179,6.675,33.4258
595,2021/1/8,9:54,42-30.25N,141-36.85E,179,6.629,33.4367
596,2021/1/8,9:55,42-29.96N,141-36.86E,179,6.59,33.4523
597,2021/1/8,9:56,42-29.69N,141-36.86E,178,6.558,33.4502
598,2021/1/8,9:57,42-29.40N,141-36.87E,179,6.622,33.4578
599,2021/1/8,9:58,42-29.12N,141-36.88E,178,6.682,33.461
600,2021/1/8,9:59,42-28.84N,141-36.89E,179,6.724,33.4784
601,2021/1/8,10:00,42-28.56N,141-36.89E,178,6.762,33.4658
602,2021/1/8,10:01,42-28.27N,141-36.91E,178,6.789,33.4735
603,2021/1/8,10:02,42-27.99N,141-36.91E,180,6.856,33.4804
604,2021/1/8,10:03,42-27.71N,141-36.89E,182,6.926,33.4824
605,2021/1/8,10:04,42-27.42N,141-36.88E,182,6.987,33.4729
606,2021/1/8,10:05,42-27.13N,141-36.86E,182,7.048,33.4735
607,2021/1/8,10:06,42-26.85N,141-36.85E,182,7.077,33.4737
608,2021/1/8,10:07,42-26.56N,141-36.84E,181,7.093,33.4794
609,2021/1/8,10:08,42-26.29N,141-36.83E,180,7.111,33.4757
610,2021/1/8,10:09,42-25.99N,141-36.82E,181,7.114,33.457
611,2021/1/8,10:10,42-25.71N,141-36.81E,181,7.115,33.4662
612,2021/1/8,10:11,42-25.43N,141-36.80E,182,7.109,33.4648
613,2021/1/8,10:12,42-25.14N,141-36.78E,182,7.11,33.4651
614,2021/1/8,10:13,42-24.86N,141-36.77E,181,7.146,33.4689
615,2021/1/8,10:14,42-24.60N,141-36.76E,180,7.171,33.4571
616,2021/1/8,10:15,42-24.29N,141-36.77E,180,7.175,33.4258
617,2021/1/8,10:16,42-24.01N,141-36.76E,181,7.178,33.3883
618,2021/1/8,10:17,42-23.73N,141-36.74E,181,7.177,33.3704
619,2021/1/8,10:18,42-23.47N,141-36.74E,181,7.224,33.3611
620,2021/1/8,10:19,42-23.20N,141-36.73E,181,7.262,33.3574
621,2021/1/8,10:20,42-22.93N,141-36.72E,181,7.281,33.3656
622,2021/1/8,10:21,42-22.64N,141-36.70E,182,7.301,33.3536
623,2021/1/8,10:22,42-22.36N,141-36.69E,182,7.306,33.3597
624,2021/1/8,10:23,42-22.08N,141-36.68E,181,7.314,33.3522
625,2021/1/8,10:24,42-21.80N,141-36.66E,183,7.326,33.357
626,2021/1/8,10:25,42-21.52N,141-36.64E,182,7.326,33.3507
627,2021/1/8,10:26,42-21.24N,141-36.62E,182,7.325,33.3529
628,2021/1/8,10:27,42-20.96N,141-36.60E,182,7.327,33.3507
629,2021/1/8,10:28,42-20.67N,141-36.58E,182,7.355,33.3503
630,2021/1/8,10:29,42-20.39N,141-36.57E,182,7.367,33.3567
631,2021/1/8,10:30,42-20.11N,141-36.55E,182,7.365,33.357
632,2021/1/8,10:31,42-19.83N,141-36.53E,182,7.353,33.3671
633,2021/1/8,10:32,42-19.55N,141-36.51E,182,7.302,33.3687
634,2021/1/8,10:33,42-19.27N,141-36.49E,182,7.229,33.3676
635,2021/1/8,10:34,42-19.00N,141-36.48E,180,7.04,33.3618
636,2021/1/8,10:35,42-18.71N,141-36.48E,181,6.98,33.3658
637,2021/1/8,10:36,42-18.43N,141-36.45E,183,6.968,33.3415
638,2021/1/8,10:37,42-18.15N,141-36.43E,183,6.965,33.3227
639,2021/1/8,10:38,42-17.87N,141-36.41E,183,6.958,33.3193
640,2021/1/8,10:39,42-17.58N,141-36.39E,182,6.953,33.3186
641,2021/1/8,10:40,42-17.31N,141-36.37E,183,6.954,33.3174
642,2021/1/8,10:41,42-17.03N,141-36.35E,183,6.999,33.3213
643,2021/1/8,10:42,42-16.75N,141-36.32E,184,7.091,33.3175
644,2021/1/8,10:43,42-16.46N,141-36.30E,183,7.136,33.3261
645,2021/1/8,10:44,42-16.18N,141-36.28E,182,7.156,33.336
646,2021/1/8,10:45,42-15.90N,141-36.26E,182,7.178,33.3385
647,2021/1/8,10:46,42-15.63N,141-36.24E,182,7.222,33.3416
648,2021/1/8,10:47,42-15.34N,141-36.23E,182,7.256,33.3523
649,2021/1/8,10:48,42-15.07N,141-36.20E,184,7.306,33.3498
650,2021/1/8,10:49,42-14.80N,141-36.17E,185,7.352,33.3521
651,2021/1/8,10:50,42-14.52N,141-36.14E,183,7.363,33.3626
652,2021/1/8,10:51,42-14.24N,141-36.13E,180,7.369,33.3692
653,2021/1/8,10:52,42-13.96N,141-36.12E,182,7.374,33.3732
654,2021/1/8,10:53,42-13.68N,141-36.11E,182,7.394,33.3698
655,2021/1/8,10:54,42-13.39N,141-36.09E,181,7.216,33.3769
656,2021/1/8,10:55,42-13.12N,141-36.08E,181,6.957,33.3733
657,2021/1/8,10:56,42-12.84N,141-36.07E,182,6.918,33.3479
658,2021/1/8,10:57,42-12.56N,141-36.06E,181,6.895,33.3239
659,2021/1/8,10:58,42-12.28N,141-36.05E,182,6.883,33.3051
660,2021/1/8,10:59,42-12.01N,141-36.03E,182,6.87,33.2928
661,2021/1/8,11:00,42-11.74N,141-36.01E,183,6.85,33.2887
662,2021/1/8,11:01,42-11.45N,141-36.00E,181,6.855,33.2903
663,2021/1/8,11:02,42-11.18N,141-35.98E,182,6.859,33.2849
664,2021/1/8,11:03,42-10.90N,141-35.97E,181,6.874,33.2879
665,2021/1/8,11:04,42-10.63N,141-35.96E,182,6.881,33.2913
666,2021/1/8,11:05,42-10.35N,141-35.94E,182,6.882,33.287
667,2021/1/8,11:06,42-10.08N,141-35.93E,183,6.889,33.2858
668,2021/1/8,11:07,42-09.80N,141-35.91E,180,6.911,33.2837
669,2021/1/8,11:08,42-09.49N,141-35.93E,178,6.926,33.2936
670,2021/1/8,11:09,42-09.21N,141-35.94E,177,6.987,33.2835
671,2021/1/8,11:10,42-08.94N,141-35.96E,177,6.966,33.2908
672,2021/1/8,11:11,42-08.70N,141-35.98E,177,6.969,33.3007
673,2021/1/8,11:12,42-08.39N,141-35.99E,177,6.912,33.3012
674,2021/1/8,11:13,42-08.11N,141-36.02E,176,6.905,33.2949
675,2021/1/8,11:14,42-07.87N,141-36.04E,176,6.901,33.2907
676,2021/1/8,11:15,42-07.60N,141-36.06E,177,6.907,33.2903
677,2021/1/8,11:16,42-07.28N,141-36.08E,176,7.029,33.2863
678,2021/1/8,11:17,42-07.00N,141-36.10E,176,6.971,33.296
679,2021/1/8,11:18,42-06.72N,141-36.12E,176,6.999,33.3024
680,2021/1/8,11:19,42-06.45N,141-36.15E,176,6.983,33.3006
681,2021/1/8,11:20,42-06.17N,141-36.17E,177,6.961,33.2974
682,2021/1/8,11:21,42-05.89N,141-36.19E,177,7.025,33.3038
683,2021/1/8,11:22,42-05.61N,141-36.21E,176,7.01,33.2977
684,2021/1/8,11:23,42-05.35N,141-36.23E,176,7.051,33.3019
685,2021/1/8,11:24,42-05.06N,141-36.26E,176,7.044,33.3018
686,2021/1/8,11:25,42-04.78N,141-36.28E,176,7.026,33.308
687,2021/1/8,11:26,42-04.50N,141-36.30E,177,7.036,33.3048
688,2021/1/8,11:27,42-04.22N,141-36.32E,176,7.045,33.3087
689,2021/1/8,11:28,42-03.94N,141-36.35E,176,7.04,33.2998
690,2021/1/8,11:29,42-03.67N,141-36.37E,177,7.045,33.3107
691,2021/1/8,11:30,42-03.38N,141-36.39E,176,7.074,33.3065
692,2021/1/8,11:31,42-03.11N,141-36.41E,176,7.096,33.3087
693,2021/1/8,11:32,42-02.82N,141-36.43E,177,7.105,33.3123
694,2021/1/8,11:33,42-02.55N,141-36.44E,178,7.085,33.3099
695,2021/1/8,11:34,42-02.27N,141-36.46E,177,7.12,33.3107
696,2021/1/8,11:35,42-01.98N,141-36.48E,177,7.117,33.3159
697,2021/1/8,11:36,42-01.70N,141-36.50E,176,7.182,33.314
698,2021/1/8,11:37,42-01.42N,141-36.53E,176,7.194,33.3135
699,2021/1/8,11:38,42-01.15N,141-36.54E,177,7.245,33.3271
700,2021/1/8,11:39,42-00.87N,141-36.56E,177,7.269,33.3329
701,2021/1/8,11:40,42-00.59N,141-36.58E,177,7.362,33.3356
702,2021/1/8,11:41,42-00.30N,141-36.60E,176,7.474,33.3413
703,2021/1/8,11:42,42-00.02N,141-36.62E,177,7.387,33.3597
704,2021/1/8,11:43,41-59.75N,141-36.64E,176,7.326,33.3754
705,2021/1/8,11:44,41-59.46N,141-36.67E,176,7.389,33.3642
706,2021/1/8,11:45,41-59.23N,141-36.68E,176,7.389,33.3546
707,2021/1/8,11:46,41-58.94N,141-36.71E,175,7.39,33.3617
708,2021/1/8,11:47,41-58.66N,141-36.73E,177,7.419,33.361
709,2021/1/8,11:48,41-58.37N,141-36.75E,177,7.442,33.3656
710,2021/1/8,11:49,41-58.04N,141-36.77E,176,7.443,33.3668
711,2021/1/8,11:50,41-57.75N,141-36.80E,176,7.452,33.3725
712,2021/1/8,11:51,41-57.47N,141-36.81E,177,7.538,33.3662
713,2021/1/8,11:52,41-57.18N,141-36.83E,177,7.589,33.3694
714,2021/1/8,11:53,41-56.90N,141-36.85E,177,7.623,33.3858
715,2021/1/8,11:54,41-56.60N,141-36.88E,176,7.638,33.3909
716,2021/1/8,11:55,41-56.36N,141-36.89E,177,7.636,33.4017
717,2021/1/8,11:56,41-56.07N,141-36.91E,177,7.622,33.4103
718,2021/1/8,11:57,41-55.79N,141-36.93E,176,7.62,33.4003
719,2021/1/8,11:58,41-55.50N,141-36.95E,177,7.615,33.4054
720,2021/1/8,11:59,41-55.21N,141-36.97E,177,7.603,33.4089
721,2021/1/8,12:00,41-54.92N,141-36.99E,177,7.597,33.404
722,2021/1/8,12:01,41-54.63N,141-37.01E,177,7.578,33.4084
723,2021/1/8,12:02,41-54.35N,141-37.03E,176,7.564,33.4048
724,2021/1/8,12:03,41-54.05N,141-37.06E,177,7.559,33.3977
725,2021/1/8,12:04,41-53.77N,141-37.08E,176,7.533,33.4014
726,2021/1/8,12:05,41-53.48N,141-37.10E,177,7.511,33.3963
727,2021/1/8,12:06,41-53.20N,141-37.12E,176,7.478,33.401
728,2021/1/8,12:07,41-52.90N,141-37.14E,176,7.455,33.3961
729,2021/1/8,12:08,41-52.62N,141-37.16E,176,7.454,33.3932
730,2021/1/8,12:09,41-52.33N,141-37.19E,176,7.458,33.3839
731,2021/1/8,12:10,41-52.04N,141-37.21E,175,7.456,33.3837
732,2021/1/8,12:11,41-51.75N,141-37.24E,175,7.483,33.3874
733,2021/1/8,12:12,41-51.46N,141-37.27E,175,7.513,33.394
734,2021/1/8,12:13,41-51.17N,141-37.29E,177,7.529,33.3923
735,2021/1/8,12:14,41-50.88N,141-37.32E,174,7.568,33.3921
736,2021/1/8,12:15,41-50.59N,141-37.36E,174,7.567,33.3936
737,2021/1/8,12:16,41-50.31N,141-37.38E,176,7.59,33.3957
738,2021/1/8,12:17,41-50.01N,141-37.41E,176,7.576,33.3934
739,2021/1/8,12:18,41-49.72N,141-37.44E,175,7.581,33.3927
740,2021/1/8,12:19,41-49.43N,141-37.47E,176,7.587,33.3946
741,2021/1/8,12:20,41-49.14N,141-37.50E,175,7.597,33.3935
742,2021/1/8,12:21,41-48.85N,141-37.52E,176,7.588,33.3954
743,2021/1/8,12:22,41-48.55N,141-37.55E,175,7.579,33.3986
744,2021/1/8,12:23,41-48.26N,141-37.58E,176,7.562,33.404
745,2021/1/8,12:24,41-47.96N,141-37.60E,176,7.543,33.4023
746,2021/1/8,12:25,41-47.67N,141-37.63E,176,7.528,33.4002
747,2021/1/8,12:26,41-47.37N,141-37.66E,175,7.511,33.4093
748,2021/1/8,12:27,41-47.07N,141-37.69E,176,7.502,33.4021
749,2021/1/8,12:28,41-46.79N,141-37.72E,175,7.504,33.4025
750,2021/1/8,12:29,41-46.49N,141-37.74E,176,7.509,33.3955
751,2021/1/8,12:30,41-46.20N,141-37.77E,174,7.502,33.4036
752,2021/1/8,12:31,41-45.91N,141-37.81E,174,7.561,33.4019
753,2021/1/8,12:32,41-45.62N,141-37.85E,175,7.642,33.3977
754,2021/1/8,12:33,41-45.32N,141-37.88E,175,7.706,33.4056
755,2021/1/8,12:34,41-45.03N,141-37.92E,175,7.756,33.4145
756,2021/1/8,12:35,41-44.74N,141-37.95E,175,7.788,33.4164
757,2021/1/8,12:36,41-44.44N,141-37.98E,175,7.794,33.4316
758,2021/1/8,12:37,41-44.15N,141-38.02E,175,7.771,33.4443
759,2021/1/8,12:38,41-43.85N,141-38.05E,174,7.734,33.4361
760,2021/1/8,12:39,41-43.56N,141-38.09E,174,7.499,33.4345
761,2021/1/8,12:40,41-43.26N,141-38.12E,175,7.383,33.4419
762,2021/1/8,12:41,41-42.97N,141-38.18E,165,8.105,33.4186
763,2021/1/8,12:42,41-42.68N,141-38.32E,159,9.747,33.3971
764,2021/1/8,12:43,41-42.40N,141-38.45E,162,10.141,33.4157
765,2021/1/8,12:44,41-42.10N,141-38.55E,166,10.343,33.4771
766,2021/1/8,12:45,41-41.80N,141-38.64E,167,10.47,33.5177
767,2021/1/8,12:46,41-41.51N,141-38.73E,168,10.562,33.5492
768,2021/1/8,12:47,41-41.20N,141-38.81E,169,10.703,33.5632
769,2021/1/8,12:48,41-40.91N,141-38.88E,169,10.742,33.5708
770,2021/1/8,12:49,41-40.61N,141-38.96E,170,10.758,33.5671
771,2021/1/8,12:50,41-40.31N,141-39.03E,170,10.791,33.5654
772,2021/1/8,12:51,41-40.01N,141-39.10E,169,10.804,33.566
773,2021/1/8,12:52,41-39.71N,141-39.17E,170,10.821,33.5732
774,2021/1/8,12:53,41-39.41N,141-39.24E,171,10.819,33.5753
775,2021/1/8,12:54,41-39.11N,141-39.31E,170,10.794,33.5708
776,2021/1/8,12:55,41-38.80N,141-39.37E,171,10.762,33.5809
777,2021/1/8,12:56,41-38.50N,141-39.44E,171,10.753,33.5806
778,2021/1/8,12:57,41-38.19N,141-39.50E,171,10.762,33.574
779,2021/1/8,12:58,41-37.89N,141-39.57E,170,10.773,33.5777
780,2021/1/8,12:59,41-37.58N,141-39.64E,169,10.793,33.575
781,2021/1/8,13:00,41-37.28N,141-39.71E,171,10.808,33.5726
782,2021/1/8,13:01,41-36.97N,141-39.77E,171,10.822,33.5719
783,2021/1/8,13:02,41-36.66N,141-39.83E,173,10.824,33.5769
784,2021/1/8,13:03,41-36.35N,141-39.88E,173,10.834,33.5683
785,2021/1/8,13:04,41-36.04N,141-39.93E,172,10.848,33.566
786,2021/1/8,13:05,41-35.72N,141-39.99E,172,10.853,33.5722
787,2021/1/8,13:06,41-35.42N,141-40.05E,172,10.847,33.5801
788,2021/1/8,13:07,41-35.11N,141-40.10E,172,10.845,33.58
789,2021/1/8,13:08,41-34.80N,141-40.15E,173,10.822,33.5754
790,2021/1/8,13:09,41-34.49N,141-40.19E,173,10.802,33.5682
791,2021/1/8,13:10,41-34.17N,141-40.24E,173,10.777,33.5762
792,2021/1/8,13:11,41-33.86N,141-40.29E,172,10.735,33.5792
793,2021/1/8,13:12,41-33.55N,141-40.35E,172,10.744,33.5697
794,2021/1/8,13:13,41-33.24N,141-40.40E,171,10.695,33.5696
795,2021/1/8,13:14,41-32.93N,141-40.47E,170,10.659,33.567
796,2021/1/8,13:15,41-32.62N,141-40.55E,169,10.69,33.5658
797,2021/1/8,13:16,41-32.30N,141-40.63E,168,10.678,33.5699
798,2021/1/8,13:17,41-32.00N,141-40.72E,168,10.624,33.5674
799,2021/1/8,13:18,41-31.69N,141-40.81E,168,10.641,33.5693
800,2021/1/8,13:19,41-31.38N,141-40.89E,167,10.647,33.5691
801,2021/1/8,13:20,41-31.07N,141-40.98E,168,10.662,33.5665
802,2021/1/8,13:21,41-30.77N,141-41.07E,167,10.692,33.5654
803,2021/1/8,13:22,41-30.46N,141-41.16E,167,10.694,33.5722
804,2021/1/8,13:23,41-30.14N,141-41.25E,168,10.719,33.5658
805,2021/1/8,13:24,41-29.84N,141-41.33E,168,10.718,33.5701
806,2021/1/8,13:25,41-29.52N,141-41.42E,168,10.723,33.5669
807,2021/1/8,13:26,41-29.21N,141-41.50E,169,10.728,33.5718
808,2021/1/8,13:27,41-28.89N,141-41.58E,168,10.726,33.5681
809,2021/1/8,13:28,41-28.59N,141-41.68E,166,10.719,33.5661
810,2021/1/8,13:29,41-28.27N,141-41.77E,167,10.714,33.5698
811,2021/1/8,13:30,41-27.97N,141-41.86E,167,10.728,33.5694
812,2021/1/8,13:31,41-27.66N,141-41.96E,165,10.72,33.5654
813,2021/1/8,13:32,41-27.35N,141-42.07E,165,10.727,33.5716
814,2021/1/8,13:33,41-27.03N,141-42.18E,165,10.714,33.5803
815,2021/1/8,13:34,41-26.73N,141-42.28E,165,10.725,33.5791
816,2021/1/8,13:35,41-26.42N,141-42.39E,163,10.729,33.5689
817,2021/1/8,13:36,41-26.10N,141-42.51E,165,10.73,33.5702
818,2021/1/8,13:37,41-25.76N,141-42.64E,164,10.729,33.5744
819,2021/1/8,13:38,41-25.45N,141-42.75E,164,10.728,33.5693
820,2021/1/8,13:39,41-25.15N,141-42.87E,164,10.71,33.5715
821,2021/1/8,13:40,41-24.83N,141-42.98E,164,10.698,33.5715
822,2021/1/8,13:41,41-24.52N,141-43.09E,164,10.669,33.5759
823,2021/1/8,13:42,41-24.23N,141-43.21E,163,10.613,33.5751
824,2021/1/8,13:43,41-23.92N,141-43.33E,164,10.584,33.5672
825,2021/1/8,13:44,41-23.62N,141-43.44E,164,10.576,33.5686
826,2021/1/8,13:45,41-23.32N,141-43.55E,164,10.575,33.5668
827,2021/1/8,13:46,41-23.01N,141-43.66E,164,10.609,33.5676
828,2021/1/8,13:47,41-22.71N,141-43.77E,163,10.623,33.5606
829,2021/1/8,13:48,41-22.40N,141-43.89E,163,10.655,33.5573
830,2021/1/8,13:49,41-22.11N,141-44.01E,163,10.682,33.5552
831,2021/1/8,13:50,41-21.80N,141-44.13E,163,10.743,33.5614
832,2021/1/8,13:51,41-21.50N,141-44.25E,163,10.797,33.5553
833,2021/1/8,13:52,41-21.20N,141-44.36E,163,10.818,33.5523
834,2021/1/8,13:53,41-20.89N,141-44.48E,163,10.838,33.5511
835,2021/1/8,13:54,41-20.59N,141-44.59E,164,10.857,33.5563
836,2021/1/8,13:55,41-20.28N,141-44.71E,164,10.879,33.5621
837,2021/1/8,13:56,41-19.98N,141-44.82E,164,10.889,33.5514
838,2021/1/8,13:57,41-19.67N,141-44.94E,163,10.892,33.548
839,2021/1/8,13:58,41-19.36N,141-45.05E,164,10.904,33.5469
840,2021/1/8,13:59,41-19.05N,141-45.16E,165,10.911,33.5434
841,2021/1/8,14:00,41-18.76N,141-45.26E,165,10.924,33.5445
842,2021/1/8,14:01,41-18.47N,141-45.36E,164,10.93,33.5454
843,2021/1/8,14:02,41-18.15N,141-45.48E,165,10.941,33.539
844,2021/1/8,14:03,41-17.82N,141-45.58E,167,10.946,33.5405
845,2021/1/8,14:04,41-17.48N,141-45.69E,166,10.95,33.5389
846,2021/1/8,14:05,41-17.14N,141-45.79E,167,10.945,33.543
847,2021/1/8,14:06,41-16.83N,141-45.87E,168,10.926,33.541
848,2021/1/8,14:07,41-16.55N,141-45.96E,167,10.92,33.5395
849,2021/1/8,14:08,41-16.24N,141-46.05E,167,10.86,33.5426
850,2021/1/8,14:09,41-15.91N,141-46.14E,167,10.844,33.5458
851,2021/1/8,14:10,41-15.58N,141-46.24E,168,10.863,33.541
852,2021/1/8,14:11,41-15.27N,141-46.32E,168,10.747,33.5431
853,2021/1/8,14:12,41-14.94N,141-46.41E,168,10.655,33.5466
854,2021/1/8,14:13,41-14.62N,141-46.50E,168,10.614,33.5481
855,2021/1/8,14:14,41-14.30N,141-46.59E,169,10.325,33.554
856,2021/1/8,14:15,41-13.97N,141-46.67E,169,10.215,33.5457
857,2021/1/8,14:16,41-13.65N,141-46.75E,169,10.131,33.5515
858,2021/1/8,14:17,41-13.33N,141-46.83E,168,10.074,33.5391
859,2021/1/8,14:18,41-13.02N,141-46.92E,168,10.058,33.5424
860,2021/1/8,14:19,41-12.66N,141-47.00E,171,10.043,33.5364
861,2021/1/8,14:20,41-12.33N,141-47.08E,170,9.993,33.5343
862,2021/1/8,14:21,41-12.06N,141-47.15E,169,9.899,33.5234
863,2021/1/8,14:22,41-11.74N,141-47.23E,169,9.738,33.5288
864,2021/1/8,14:23,41-11.43N,141-47.31E,169,9.687,33.5372
865,2021/1/8,14:24,41-11.11N,141-47.40E,168,9.639,33.5344
866,2021/1/8,14:25,41-10.81N,141-47.48E,168,9.541,33.5293
867,2021/1/8,14:26,41-10.51N,141-47.57E,166,9.663,33.5207
868,2021/1/8,14:27,41-10.21N,141-47.66E,167,9.811,33.5228
869,2021/1/8,14:28,41-09.92N,141-47.74E,168,9.907,33.5145
870,2021/1/8,14:29,41-09.62N,141-47.82E,168,10.013,33.5145
871,2021/1/8,14:30,41-09.34N,141-47.90E,167,10.101,33.5138
872,2021/1/8,14:31,41-09.04N,141-47.99E,167,10.141,33.5164
873,2021/1/8,14:32,41-08.76N,141-48.09E,164,10.142,33.5232
874,2021/1/8,14:33,41-08.47N,141-48.20E,163,10.13,33.5268
875,2021/1/8,14:34,41-08.18N,141-48.32E,161,10.164,33.5218
876,2021/1/8,14:35,41-07.90N,141-48.44E,162,10.179,33.5285
877,2021/1/8,14:36,41-07.61N,141-48.57E,161,10.181,33.5233
878,2021/1/8,14:37,41-07.34N,141-48.70E,160,10.154,33.5236
879,2021/1/8,14:38,41-07.05N,141-48.83E,160,10.093,33.526
880,2021/1/8,14:39,41-06.77N,141-48.96E,161,10.045,33.5272
881,2021/1/8,14:40,41-06.49N,141-49.08E,160,9.984,33.5226
882,2021/1/8,14:41,41-06.21N,141-49.24E,156,9.995,33.5278
883,2021/1/8,14:42,41-05.93N,141-49.39E,158,10.125,33.5286
884,2021/1/8,14:43,41-05.65N,141-49.53E,158,10.275,33.5297
885,2021/1/8,14:44,41-05.37N,141-49.68E,158,10.368,33.5265
886,2021/1/8,14:45,41-05.09N,141-49.83E,157,10.519,33.5248
887,2021/1/8,14:46,41-04.81N,141-49.98E,157,10.651,33.5258
888,2021/1/8,14:47,41-04.53N,141-50.13E,158,10.74,33.5318
889,2021/1/8,14:48,41-04.21N,141-50.30E,158,10.78,33.531
890,2021/1/8,14:49,41-03.96N,141-50.43E,159,10.795,33.5264
891,2021/1/8,14:50,41-03.68N,141-50.57E,159,10.814,33.5283
892,2021/1/8,14:51,41-03.39N,141-50.69E,165,10.848,33.5276
893,2021/1/8,14:52,41-03.09N,141-50.78E,167,10.923,33.5338
894,2021/1/8,14:53,41-02.80N,141-50.86E,167,10.962,33.5318
895,2021/1/8,14:54,41-02.50N,141-50.94E,169,10.961,33.5393
896,2021/1/8,14:55,41-02.21N,141-51.01E,169,10.956,33.545
897,2021/1/8,14:56,41-01.86N,141-51.10E,169,10.976,33.5377
898,2021/1/8,14:57,41-01.61N,141-51.18E,166,10.989,33.5447
899,2021/1/8,14:58,41-01.32N,141-51.27E,165,11.027,33.5426
900,2021/1/8,14:59,41-01.02N,141-51.37E,165,11.041,33.5423
901,2021/1/8,15:00,41-00.72N,141-51.48E,166,11.052,33.546
902,2021/1/8,15:01,41-00.42N,141-51.58E,165,11.062,33.5541
903,2021/1/8,15:02,41-00.12N,141-51.68E,165,11.069,33.5502
904,2021/1/8,15:03,40-59.83N,141-51.77E,166,11.074,33.5547
905,2021/1/8,15:04,40-59.52N,141-51.87E,166,11.07,33.5536
906,2021/1/8,15:05,40-59.23N,141-51.97E,165,11.076,33.5506
907,2021/1/8,15:06,40-58.93N,141-52.06E,166,11.077,33.5565
908,2021/1/8,15:07,40-58.62N,141-52.16E,167,11.069,33.5566
909,2021/1/8,15:08,40-58.33N,141-52.25E,166,11.067,33.559
910,2021/1/8,15:09,40-58.03N,141-52.35E,166,11.052,33.5564
911,2021/1/8,15:10,40-57.73N,141-52.45E,166,11.044,33.556
912,2021/1/8,15:11,40-57.43N,141-52.54E,165,11.042,33.5538
913,2021/1/8,15:12,40-57.08N,141-52.64E,168,11.02,33.5486
914,2021/1/8,15:13,40-56.78N,141-52.73E,166,11.01,33.5472
915,2021/1/8,15:14,40-56.48N,141-52.83E,166,10.996,33.5467
916,2021/1/8,15:15,40-56.18N,141-52.92E,166,10.982,33.5614
917,2021/1/8,15:16,40-55.88N,141-53.01E,166,10.973,33.5469
918,2021/1/8,15:17,40-55.58N,141-53.10E,166,10.953,33.5431
919,2021/1/8,15:18,40-55.27N,141-53.19E,166,10.942,33.5461
920,2021/1/8,15:19,40-54.97N,141-53.29E,166,10.926,33.5414
921,2021/1/8,15:20,40-54.68N,141-53.37E,166,10.917,33.5427
922,2021/1/8,15:21,40-54.40N,141-53.46E,167,10.91,33.5428
923,2021/1/8,15:22,40-54.10N,141-53.55E,167,10.897,33.5443
924,2021/1/8,15:23,40-53.75N,141-53.65E,167,10.879,33.5334
925,2021/1/8,15:24,40-53.45N,141-53.74E,166,10.869,33.5419
926,2021/1/8,15:25,40-53.18N,141-53.82E,166,10.852,33.5444
927,2021/1/8,15:26,40-52.88N,141-53.92E,166,10.835,33.5447
928,2021/1/8,15:27,40-52.53N,141-54.02E,166,10.812,33.5467
929,2021/1/8,15:28,40-52.23N,141-54.11E,166,10.787,33.5424
930,2021/1/8,15:29,40-51.92N,141-54.21E,166,10.778,33.5421
931,2021/1/8,15:30,40-51.66N,141-54.28E,166,10.77,33.5365
932,2021/1/8,15:31,40-51.35N,141-54.37E,167,10.768,33.5444
933,2021/1/8,15:32,40-51.04N,141-54.47E,167,10.761,33.5344
934,2021/1/8,15:33,40-50.74N,141-54.56E,166,10.748,33.538
935,2021/1/8,15:34,40-50.43N,141-54.66E,166,10.733,33.5459
936,2021/1/8,15:35,40-50.13N,141-54.75E,167,10.723,33.5345
937,2021/1/8,15:36,40-49.82N,141-54.84E,167,10.72,33.5453
938,2021/1/8,15:37,40-49.52N,141-54.94E,166,10.713,33.5403
939,2021/1/8,15:38,40-49.20N,141-55.04E,166,10.697,33.5373
940,2021/1/8,15:39,40-48.90N,141-55.13E,166,10.691,33.53
941,2021/1/8,15:40,40-48.58N,141-55.23E,166,10.684,33.5406
942,2021/1/8,15:41,40-48.27N,141-55.33E,167,10.685,33.5363
943,2021/1/8,15:42,40-47.96N,141-55.43E,166,10.687,33.5378
944,2021/1/8,15:43,40-47.65N,141-55.53E,166,10.69,33.5367
945,2021/1/8,15:44,40-47.34N,141-55.63E,166,10.694,33.534
946,2021/1/8,15:45,40-47.03N,141-55.73E,165,10.696,33.5399
947,2021/1/8,15:46,40-46.72N,141-55.84E,166,10.697,33.5391
948,2021/1/8,15:47,40-46.41N,141-55.94E,166,10.696,33.546
949,2021/1/8,15:48,40-46.07N,141-56.05E,166,10.695,33.5439
950,2021/1/8,15:49,40-45.74N,141-56.16E,165,10.695,33.5484
951,2021/1/8,15:50,40-45.40N,141-56.27E,165,10.692,33.5462
952,2021/1/8,15:51,40-45.13N,141-56.36E,165,10.689,33.546
953,2021/1/8,15:52,40-44.80N,141-56.48E,164,10.676,33.5409
954,2021/1/8,15:53,40-44.48N,141-56.58E,165,10.674,33.546
955,2021/1/8,15:54,40-44.22N,141-56.66E,166,10.669,33.5491
956,2021/1/8,15:55,40-43.90N,141-56.77E,165,10.663,33.5501
957,2021/1/8,15:56,40-43.57N,141-56.88E,165,10.65,33.5484
958,2021/1/8,15:57,40-43.24N,141-56.99E,165,10.651,33.5463
959,2021/1/8,15:58,40-42.96N,141-57.08E,165,10.655,33.5519
960,2021/1/8,15:59,40-42.65N,141-57.18E,165,10.65,33.5442
961,2021/1/8,16:00,40-42.35N,141-57.29E,165,10.625,33.5482
962,2021/1/8,16:01,40-42.03N,141-57.39E,166,10.601,33.5475
963,2021/1/8,16:02,40-41.72N,141-57.49E,166,10.581,33.5445
964,2021/1/8,16:03,40-41.41N,141-57.59E,165,10.578,33.5471
965,2021/1/8,16:04,40-41.10N,141-57.69E,166,10.581,33.5406
966,2021/1/8,16:05,40-40.79N,141-57.79E,166,10.594,33.5449
967,2021/1/8,16:06,40-40.47N,141-57.89E,166,10.605,33.5401
968,2021/1/8,16:07,40-40.17N,141-57.99E,165,10.588,33.5408
969,2021/1/8,16:08,40-39.86N,141-58.09E,165,10.571,33.5461
970,2021/1/8,16:09,40-39.55N,141-58.19E,166,10.554,33.5489
971,2021/1/8,16:10,40-39.25N,141-58.29E,166,10.54,33.5414
972,2021/1/8,16:11,40-38.94N,141-58.38E,166,10.524,33.5442
973,2021/1/8,16:12,40-38.64N,141-58.47E,167,10.522,33.5455